EW4809 Weather Reports


time (UTC)temp
F
wind
direction
speed
knots
gust
knots
rain 1hr
in
rain 24hr
in
rain mn
in
humidity
%
barometer
mb
20260905224241 92 20 0.0 0.0 0.00 0.00 0.00 60 1012.1
20260905223735 92 20 0.0 0.0 0.00 0.00 0.00 57 1012.0
20260905223229 93 20 0.0 0.0 0.00 0.00 0.00 56 1011.9
20260905222722 93 20 0.0 0.9 0.00 0.00 0.00 60 1012.0
20260905222438 93 20 0.0 0.9 0.00 0.00 0.00 58 1012.0
20260905221711 93 20 0.0 0.0 0.00 0.00 0.00 58 1012.1
20260905221204 94 20 0.0 0.0 0.00 0.00 0.00 56 1012.1
20260905220659 94 20 0.0 0.0 0.00 0.00 0.00 54 1012.1
20260905220152 95 18 0.0 0.9 0.00 0.00 0.00 55 1012.1
20260905215646 95 18 0.0 0.9 0.00 0.00 0.00 53 1012.0
20260905215141 95 18 0.0 0.9 0.00 0.00 0.00 52 1012.1
20260905214634 96 323 0.0 1.7 0.00 0.00 0.00 52 1012.2
20260905214129 95 252 0.9 3.5 0.00 0.00 0.00 49 1012.2
20260905213622 95 305 0.0 4.3 0.00 0.00 0.00 51 1012.2
20260905213117 96 266 0.0 4.3 0.00 0.00 0.00 50 1012.2
20260905212610 96 308 0.0 0.9 0.00 0.00 0.00 50 1012.2
20260905212105 96 276 0.0 0.9 0.00 0.00 0.00 48 1012.2
20260905211600 96 286 0.0 1.7 0.00 0.00 0.00 48 1012.1
20260905211054 96 18 0.0 2.6 0.00 0.00 0.00 50 1012.1
20260905210547 96 43 0.9 4.3 0.00 0.00 0.00 51 1012.3
20260905210041 97 234 0.0 4.3 0.00 0.00 0.00 47 1012.4
20260905205535 98 354 0.0 2.6 0.00 0.00 0.00 46 1012.4
20260905205028 97 336 0.0 2.6 0.00 0.00 0.00 48 1012.4
20260905204524 96 310 0.0 2.6 0.00 0.00 0.00 48 1012.5
20260905204018 95 254 0.0 4.3 0.00 0.00 0.00 51 1012.6
20260905203510 96 300 0.9 4.3 0.00 0.00 0.00 51 1012.6
20260905203223 96 248 0.0 2.6 0.00 0.00 0.00 48 1012.6
20260905202459 96 231 0.0 2.6 0.00 0.00 0.00 47 1012.6
20260905201952 96 284 0.0 3.5 0.00 0.00 0.00 51 1012.7
20260905201448 96 307 0.0 3.5 0.00 0.00 0.00 48 1012.9
20260905200940 95 59 0.0 2.6 0.00 0.00 0.00 51 1012.9
20260905200655 96 294 0.9 6.1 0.00 0.00 0.00 49 1013.0
20260905195928 95 27 0.9 6.1 0.00 0.00 0.00 52 1013.1
20260905195422 96 287 0.9 4.3 0.00 0.00 0.00 48 1013.1
20260905194918 96 235 0.0 4.3 0.00 0.00 0.00 49 1013.1
20260905194630 96 244 0.0 3.5 0.00 0.00 0.00 50 1013.2
20260905193904 95 315 0.0 0.0 0.00 0.00 0.00 49 1013.3
20260905193359 95 309 0.9 2.6 0.00 0.00 0.00 49 1013.4
20260905192852 95 129 0.9 2.6 0.00 0.00 0.00 49 1013.5
20260905192608 95 200 0.9 2.6 0.00 0.00 0.00 49 1013.5
20260905191842 94 302 0.9 2.6 0.00 0.00 0.00 48 1013.5
20260905191335 95 222 0.0 2.6 0.00 0.00 0.00 49 1013.6
20260905190828 94 223 0.9 2.6 0.00 0.00 0.00 52 1013.8
20260905190323 93 62 0.9 3.5 0.00 0.00 0.00 52 1013.8
20260905190050 93 214 0.9 3.5 0.00 0.00 0.00 51 1013.8
20260905185323 93 188 0.9 3.5 0.00 0.00 0.00 51 1013.9
20260905184823 93 61 0.9 3.5 0.00 0.00 0.00 52 1013.9
20260905184321 94 211 0.9 3.5 0.00 0.00 0.00 49 1013.9
20260905184040 94 254 0.0 3.5 0.00 0.00 0.00 51 1014.0
20260905183320 94 208 0.9 4.3 0.00 0.00 0.00 51 1014.0
20260905183043 94 190 0.0 4.3 0.00 0.00 0.00 49 1014.0
20260905182319 94 224 0.0 2.6 0.00 0.00 0.00 50 1014.0
20260905181819 94 225 0.0 3.5 0.00 0.00 0.00 49 1014.3
20260905181322 94 61 0.9 3.5 0.00 0.00 0.00 51 1014.5
20260905180817 94 240 0.0 3.5 0.00 0.00 0.00 49 1014.6
20260905180317 93 327 0.0 3.5 0.00 0.00 0.00 53 1014.5
20260905180124 93 221 0.9 4.3 0.00 0.00 0.00 49 1014.6
20260905180015 92 358 0.9 4.3 0.00 0.00 0.00 50 1014.7
20260905174816 92 4 0.0 1.7 0.00 0.00 0.00 51 1014.7
20260905174314 92 207 0.0 3.5 0.00 0.00 0.00 52 1014.8
20260905173809 91 236 0.9 4.3 0.00 0.00 0.00 51 1014.7
20260905173304 91 210 0.9 4.3 0.00 0.00 0.00 51 1014.8
20260905173024 92 221 0.9 3.5 0.00 0.00 0.00 53 1014.9
20260905172305 91 245 0.0 3.5 0.00 0.00 0.00 52 1015.0
20260905172033 91 15 0.0 1.7 0.00 0.00 0.00 56 1015.0
20260905171304 91 258 0.0 1.7 0.00 0.00 0.00 53 1015.0
20260905170805 91 118 0.0 0.9 0.00 0.00 0.00 54 1015.0
20260905170305 91 78 0.0 1.7 0.00 0.00 0.00 55 1015.0
20260905165805 90 5 0.0 2.6 0.00 0.00 0.00 56 1015.1
20260905165306 90 271 0.0 2.6 0.00 0.00 0.00 53 1015.2
20260905164803 91 98 0.0 2.6 0.00 0.00 0.00 54 1015.4
20260905164303 90 248 0.0 2.6 0.00 0.00 0.00 54 1015.5
20260905163803 89 41 0.0 0.9 0.00 0.00 0.00 58 1015.6
20260905163258 88 1 0.0 0.9 0.00 0.00 0.00 58 1015.7
20260905162758 88 62 0.0 0.9 0.00 0.00 0.00 57 1015.8
20260905162300 88 6 0.0 2.6 0.00 0.00 0.00 57 1015.8
20260905161758 88 115 0.9 3.5 0.00 0.00 0.00 58 1015.7
20260905161259 87 231 0.0 3.5 0.00 0.00 0.00 58 1015.5
20260905160758 87 229 0.0 4.3 0.00 0.00 0.00 59 1015.5
20260905160258 87 83 0.9 4.3 0.00 0.00 0.00 60 1015.6
20260905160023 87 257 0.0 4.3 0.00 0.00 0.00 61 1015.6
20260905155258 87 190 0.0 4.3 0.00 0.00 0.00 64 1015.6
20260905155019 86 233 0.9 6.1 0.00 0.00 0.00 63 1015.6
20260905154524 86 149 0.9 6.1 0.00 0.00 0.00 62 1015.7
20260905153801 86 149 0.0 4.3 0.00 0.00 0.00 67 1015.6
20260905153301 85 117 0.9 6.1 0.00 0.00 0.00 65 1015.6
20260905152803 85 65 0.9 6.1 0.00 0.00 0.00 65 1015.6
20260905152259 85 222 0.0 1.7 0.00 0.00 0.00 65 1015.6
20260905152017 84 77 0.0 4.3 0.00 0.00 0.00 67 1015.5
20260905151521 84 112 0.9 4.3 0.00 0.00 0.00 66 1015.6
20260905150759 83 254 0.0 3.5 0.00 0.00 0.00 67 1015.6
20260905150300 83 94 0.0 2.6 0.00 0.00 0.00 67 1015.6
20260905145758 83 134 0.0 3.5 0.00 0.00 0.00 70 1015.6
20260905145259 83 70 0.0 3.5 0.00 0.00 0.00 71 1015.7
20260905144758 82 249 0.0 1.7 0.00 0.00 0.00 73 1015.9
20260905144256 82 221 0.0 2.6 0.00 0.00 0.00 74 1015.9
20260905143756 81 50 0.0 2.6 0.00 0.00 0.00 72 1016.0
20260905143255 81 246 0.0 2.6 0.00 0.00 0.00 71 1016.0
20260905142754 80 46 0.0 2.6 0.00 0.00 0.00 75 1016.1
20260905142254 80 57 0.0 1.7 0.00 0.00 0.00 74 1016.2
20260905142236 80 77 0.0 1.7 0.00 0.00 0.00 74 1016.3
20260905141253 80 62 0.0 0.0 0.00 0.00 0.00 77 1016.3
20260905140753 79 64 0.0 2.6 0.00 0.00 0.00 77 1016.4
20260905140254 78 73 0.0 2.6 0.00 0.00 0.00 79 1016.5
20260905135746 78 53 0.0 3.5 0.00 0.00 0.00 78 1016.4
20260905135240 77 67 0.0 3.5 0.00 0.00 0.00 79 1016.4
20260905134735 77 39 0.0 4.3 0.00 0.00 0.00 81 1016.3
20260905134228 76 56 0.9 4.3 0.00 0.00 0.00 81 1016.2
20260905133723 76 62 0.9 4.3 0.00 0.00 0.00 82 1016.4
20260905133222 75 51 1.7 5.2 0.00 0.00 0.00 83 1016.5
20260905132945 75 48 1.7 5.2 0.00 0.00 0.00 83 1016.8
20260905132221 74 57 1.7 5.2 0.00 0.00 0.00 85 1016.9
20260905131718 74 72 0.9 4.3 0.00 0.00 0.00 86 1016.8
20260905131220 74 108 0.0 2.6 0.00 0.00 0.00 88 1017.0
20260905130718 74 100 0.9 3.5 0.00 0.00 0.00 88 1017.2
20260905130218 74 103 0.9 3.5 0.00 0.00 0.00 88 1017.0
20260905125719 73 53 0.0 1.7 0.00 0.00 0.00 89 1016.8
20260905125221 0 0.0 0.0 0.00 0.00 0.00 1016.8
20260905124718 0 0.0 0.0 0.00 0.00 0.00 1016.8
20260905124124 0 0.0 0.0 0.00 0.00 0.00 1016.7
20260905123625 0 0.0 0.0 0.00 0.00 0.00 1016.7
20260905123253 0 0.0 0.0 0.00 0.00 0.00 1016.6
20260905122742 0 0.0 0.0 0.00 0.00 0.00 1016.7
20260905121928 0 0.0 0.0 0.00 0.00 0.00 1016.5
20260905121645 0 0.0 0.0 0.00 0.00 0.00 1016.5
20260905121055 0 0.0 0.0 0.00 0.00 0.00 1015.3
20260905120333 0 0.0 0.0 0.00 0.00 0.00 1015.3
20260905115826 0 0.0 0.0 0.00 0.00 0.00 1015.3
20260905115319 0 0.0 0.0 0.00 0.00 0.00 1015.2
20260905114725 0 0.0 0.0 0.00 0.00 0.00 1015.4
20260905114618 0 0.0 0.0 0.00 0.00 0.00 1015.9
20260905113847 0 0.0 0.0 0.00 0.00 0.00 1015.9
20260905113120 0 0.0 0.0 0.00 0.00 0.00 1015.5
20260905112530 0 0.0 0.0 0.00 0.00 0.00 1015.2
20260905112152 0 0.0 0.0 0.00 0.00 0.00 1015.3
20260905111648 0 0.0 0.0 0.00 0.00 0.00 1015.3
20260905110927 0 0.0 0.0 0.00 0.00 0.00 1015.6
20260905110423 0 0.0 0.0 0.00 0.00 0.00 1015.3
20260905105920 0 0.0 0.0 0.00 0.00 0.00 1015.3
20260905105548 0 0.0 0.0 0.00 0.00 0.00 1015.1
20260905105314 0 0.0 0.0 0.00 0.00 0.00 1015.1
20260905104315 0 0.0 0.0 0.00 0.00 0.00 1015.1
20260905103722 0 0.0 0.0 0.00 0.00 0.00 1015.2
20260905103220 0 0.0 0.0 0.00 0.00 0.00 1015.1
20260905102632 0 0.0 0.0 0.00 0.00 0.00 1014.7
20260905102121 0 0.0 0.0 0.00 0.00 0.00 1014.6
20260905101839 0 0.0 0.0 0.00 0.00 0.00 1014.4
20260905101244 0 0.0 0.0 0.00 0.00 0.00 1014.5
20260905100431 0 0.0 0.0 0.00 0.00 0.00 1014.4
20260905100315 0 0.0 0.0 0.00 0.00 0.00 1014.5
20260905095307 0 0.0 0.0 0.00 0.00 0.00 1014.3
20260905094725 0 0.0 0.0 0.00 0.00 0.00 1014.3
20260905094220 0 0.0 0.0 0.00 0.00 0.00 1014.2
20260905093633 0 0.0 0.0 0.00 0.00 0.00 1014.0
20260905093114 0 0.0 0.0 0.00 0.00 0.00 1014.0
20260905092955 0 0.0 0.0 0.00 0.00 0.00 1014.3
20260905092242 0 0.0 0.0 0.00 0.00 0.00 1014.5
20260905091431 0 0.0 0.0 0.00 0.00 0.00 1013.9
20260905090930 0 0.0 0.0 0.00 0.00 0.00 1013.9
20260905090647 0 0.0 0.0 0.00 0.00 0.00 1013.7
20260905085826 0 0.0 0.0 0.00 0.00 0.00 1013.8
20260905085321 74 276 0.0 3.5 0.00 0.00 0.00 92 1014.0
20260905084815 74 276 0.0 0.0 0.00 0.00 0.00 92 1014.3
20260905084517 74 276 0.0 3.5 0.00 0.00 0.00 92 1014.3
20260905083759 75 293 0.0 3.5 0.00 0.00 0.00 93 1014.3
20260905083257 75 352 0.0 0.0 0.00 0.00 0.00 93 1013.7
20260905082758 75 352 0.0 0.9 0.00 0.00 0.00 93 1013.7
20260905082256 75 351 0.0 0.9 0.00 0.00 0.00 93 1013.9
20260905082012 75 9 0.0 0.0 0.00 0.00 0.00 93 1013.7
20260905081254 75 9 0.0 0.0 0.00 0.00 0.00 93 1013.7
20260905081012 75 9 0.0 0.0 0.00 0.00 0.00 93 1013.7
20260905080253 75 9 0.0 0.0 0.00 0.00 0.00 92 1013.7
20260905075747 75 9 0.0 0.0 0.00 0.00 0.00 92 1013.6
20260905075457 75 9 0.0 0.0 0.00 0.00 0.00 92 1013.5
20260905074734 75 9 0.0 0.0 0.00 0.00 0.00 92 1013.6
20260905074229 76 9 0.0 0.0 0.00 0.00 0.00 92 1013.9
20260905073723 76 9 0.0 0.0 0.00 0.00 0.00 92 1013.9
20260905073222 76 9 0.0 0.0 0.00 0.00 0.00 92 1013.9
20260905072719 76 9 0.0 0.0 0.00 0.00 0.00 92 1014.0
20260905072221 76 9 0.0 0.0 0.00 0.00 0.00 92 1014.0
20260905071720 76 9 0.0 0.9 0.00 0.00 0.00 92 1014.2
20260905071219 76 9 0.0 0.9 0.00 0.00 0.00 93 1014.2
20260905070948 76 8 0.0 0.0 0.00 0.00 0.00 92 1014.2
20260905070218 76 8 0.0 0.0 0.00 0.00 0.00 92 1014.2
20260905065718 76 8 0.0 0.0 0.00 0.00 0.00 92 1014.4
20260905065706 76 8 0.0 0.9 0.00 0.00 0.00 92 1014.5
20260905064715 76 8 0.0 0.9 0.00 0.00 0.00 92 1014.5
20260905064215 76 6 0.0 0.0 0.00 0.00 0.00 92 1014.5
20260905063715 76 6 0.0 0.0 0.00 0.00 0.00 92 1014.6
20260905063430 76 6 0.0 0.0 0.00 0.00 0.00 92 1014.7
20260905062711 76 6 0.0 0.0 0.00 0.00 0.00 92 1014.7
20260905062211 76 6 0.0 0.0 0.00 0.00 0.00 92 1014.9
20260905061709 76 5 0.0 0.0 0.00 0.00 0.00 92 1014.9
20260905061210 76 5 0.0 0.0 0.00 0.00 0.00 92 1014.9
20260905060709 76 5 0.0 0.0 0.00 0.00 0.00 92 1014.9
20260905060210 76 5 0.0 0.0 0.00 0.00 0.00 92 1014.9
20260905055711 76 5 0.0 0.0 0.00 0.00 0.00 92 1015.0
20260905055209 76 5 0.0 0.0 0.00 0.00 0.00 91 1015.0
20260905054709 76 4 0.0 0.0 0.00 0.00 0.00 91 1015.1
20260905054210 76 5 0.0 0.0 0.00 0.00 0.00 91 1015.1
20260905053710 77 5 0.0 0.0 0.00 0.00 0.00 91 1015.0
20260905053209 77 5 0.0 0.0 0.00 0.00 0.00 91 1015.1
20260905052710 77 5 0.0 0.0 0.00 0.00 0.00 91 1015.1
20260905052649 77 5 0.0 0.0 0.00 0.00 0.00 91 1015.0
20260905051710 77 5 0.0 0.0 0.00 0.00 0.00 91 1015.0
20260905051209 77 5 0.0 0.0 0.00 0.00 0.00 91 1015.1
20260905050709 77 5 0.0 0.0 0.00 0.00 0.00 91 1015.0
20260905050204 77 5 0.0 0.0 0.00 0.00 0.00 91 1015.0
20260905050146 77 5 0.0 0.0 0.00 0.00 0.00 90 1015.0
20260905045414 77 5 0.0 0.0 0.00 0.00 0.00 90 1015.1
20260905044644 78 5 0.0 0.0 0.00 0.00 0.00 90 1015.2
20260905044138 78 4 0.0 0.0 0.00 0.00 0.00 90 1015.3
20260905043631 78 4 0.0 0.0 0.00 0.00 0.00 90 1015.2
20260905043125 78 5 0.0 0.0 0.00 0.00 0.00 90 1015.2
20260905042618 78 5 0.0 0.0 0.00 0.00 0.00 90 1015.3
20260905042119 78 5 0.0 0.0 0.00 0.00 0.00 90 1015.3
20260905041620 78 5 0.0 0.0 0.00 0.00 0.00 90 1015.4
20260905041121 78 5 0.0 0.0 0.00 0.00 0.00 90 1015.3
20260905040617 78 5 0.0 0.0 0.00 0.00 0.00 90 1015.3
20260905040117 78 5 0.0 0.0 0.00 0.00 0.00 90 1015.3
20260905035834 78 4 0.0 0.0 0.00 0.00 0.00 90 1015.3
20260905035334 78 5 0.0 0.0 0.00 0.00 0.00 90 1015.4
20260905034614 78 5 0.0 0.9 0.00 0.00 0.00 90 1015.3
20260905034112 79 5 0.0 0.9 0.00 0.00 0.00 89 1015.3
20260905033613 79 5 0.0 0.0 0.00 0.00 0.00 89 1015.3
20260905033113 79 5 0.0 0.0 0.00 0.00 0.00 89 1015.3
20260905032611 79 5 0.0 0.0 0.00 0.00 0.00 89 1015.3
20260905032111 79 5 0.0 0.0 0.00 0.00 0.00 88 1015.3
20260905031612 79 4 0.0 0.9 0.00 0.00 0.00 88 1015.3
20260905031112 79 5 0.0 0.9 0.00 0.00 0.00 87 1015.4
20260905030842 79 5 0.0 0.0 0.00 0.00 0.00 87 1015.4
20260905030108 79 349 0.0 0.0 0.00 0.00 0.00 87 1015.4
20260905025608 79 349 0.0 0.0 0.00 0.00 0.00 87 1015.4
20260905025105 80 349 0.0 0.0 0.00 0.00 0.00 88 1015.4
20260905024606 80 349 0.0 0.0 0.00 0.00 0.00 87 1015.4
20260905024104 80 349 0.0 0.0 0.00 0.00 0.00 86 1015.4
20260905023602 80 349 0.0 0.0 0.00 0.00 0.00 85 1015.4
20260905023101 80 328 0.0 0.0 0.00 0.00 0.00 85 1015.3
20260905022600 80 328 0.0 0.0 0.00 0.00 0.00 85 1015.3
20260905022057 80 328 0.0 0.0 0.00 0.00 0.00 85 1015.3
20260905021557 80 328 0.0 0.0 0.00 0.00 0.00 85 1015.2
20260905021059 81 328 0.0 0.0 0.00 0.00 0.00 85 1015.2
20260905020805 81 328 0.0 0.0 0.00 0.00 0.00 84 1015.2
20260905020649 81 328 0.0 0.0 0.00 0.00 0.00 85 1015.2
20260905015824 81 328 0.0 0.0 0.00 0.00 0.00 84 1015.2
20260905015057 81 328 0.0 0.0 0.00 0.00 0.00 84 1015.2
20260905015047 82 328 0.0 0.0 0.00 0.00 0.00 84 1015.2
20260905014321 82 328 0.0 0.0 0.00 0.00 0.00 84 1015.1
20260905013558 82 328 0.0 0.0 0.00 0.00 0.00 84 1015.1
20260905013058 82 328 0.0 0.0 0.00 0.00 0.00 82 1015.1
20260905012558 82 328 0.0 0.0 0.00 0.00 0.00 82 1014.9
20260905012058 82 328 0.0 0.0 0.00 0.00 0.00 81 1014.8
20260905011555 83 328 0.0 0.0 0.00 0.00 0.00 81 1014.8
20260905011314 83 328 0.0 0.0 0.00 0.00 0.00 81 1014.7
20260905010554 83 328 0.0 0.0 0.00 0.00 0.00 79 1014.7
20260905010054 84 328 0.0 0.0 0.00 0.00 0.00 78 1014.7
20260905005553 84 316 0.0 0.0 0.00 0.00 0.00 77 1014.4
20260905005053 85 316 0.0 0.0 0.00 0.00 0.00 77 1014.4
20260905004811 85 316 0.0 0.0 0.00 0.00 0.00 77 1014.4
20260905004053 85 316 0.0 0.0 0.00 0.00 0.00 76 1014.3
20260905004023 86 316 0.0 0.0 0.00 0.00 0.00 74 1014.4
20260905003911 86 316 0.0 0.0 0.00 0.00 0.00 75 1014.3
20260905002554 87 315 0.0 0.0 0.00 0.00 0.00 73 1014.3
20260905002318 87 315 0.0 0.0 0.00 0.00 0.00 72 1014.2
20260905001556 88 315 0.0 0.0 0.00 0.00 0.00 71 1014.2
20260905001054 88 315 0.0 0.0 0.00 0.00 0.00 70 1014.2
20260905000814 89 315 0.0 0.0 0.00 0.00 0.00 69 1014.2
20260905000051 90 315 0.0 0.0 0.00 0.00 0.00 67 1014.0
20260904235550 91 315 0.0 0.0 0.00 0.00 0.00 65 1014.2
20260904235306 92 309 0.0 0.0 0.00 0.00 0.00 62 1014.0
20260904234550 94 309 0.0 0.0 0.00 0.00 0.00 60 1014.0
20260904234048 94 307 0.0 0.0 0.00 0.00 0.00 58 1014.0
20260904234029 96 307 0.0 0.0 0.00 0.00 0.00 56 1014.0
20260904233047 97 307 0.0 0.0 0.00 0.00 0.00 53 1014.0
20260904232540 100 307 0.0 0.0 0.00 0.00 0.00 50 1014.0
20260904232033 101 307 0.0 0.0 0.00 0.00 0.00 50 1014.2
20260904231529 100 307 0.0 0.0 0.00 0.00 0.00 51 1014.2
20260904231247 100 306 0.0 0.0 0.00 0.00 0.00 50 1014.2
20260904230517 100 307 0.0 0.0 0.00 0.00 0.00 49 1014.3
20260904230011 100 307 0.0 0.0 0.00 0.00 0.00 48 1014.4
20260904225506 101 307 0.0 0.0 0.00 0.00 0.00 47 1014.4
20260904224959 101 306 0.0 0.0 0.00 0.00 0.00 48 1014.6